Regional Weather Roundup
Issued by NWS

Home | Current Version | Previous Version | Graphics & Text | Print | Product List | Glossary On
Versions: 1 2 3 4 5 6 7 8 9 10 11 12 13 14 15 16 17 18 19 20 21 22 23 24 25 26 27 28 29 30 31 32 33 34 35 36 37 38 39 40 41 42 43 44 45 46 47 48 49 50
444
ASUS45 KCYS 140510
RWRWY

WYOMING REGIONAL WEATHER ROUNDUP
NATIONAL WEATHER SERVICE CHEYENNE WY
1000 PM MST SAT FEB 13 2016

NOTE:  "FAIR" INDICATES FEW OR NO CLOUDS BELOW 12,000 FEET
WITH NO SIGNIFICANT WEATHER AND/OR OBSTRUCTIONS TO VISIBILITY.

WYZ001-140600-
YELLOWSTONE NATIONAL PARK

CITY           SKY/WX    TMP DP  RH WIND       PRES   REMARKS
LK YELLOWSTONE   N/A     23  17  78 VRB3G18   30.13F
W YELLOWSTONE  NOT AVBL

$$
WYZ002>013-054>058-071-098>099-140600-
NORTHERN WYOMING

CITY           SKY/WX    TMP DP  RH WIND       PRES   REMARKS
JACKSON        FAIR      27  21  80 S8        30.19F WCI  18
CODY           FAIR      37  14  38 W16G28    30.05F WCI  28
GREYBULL       FAIR      33  20  58 SW12      30.05F WCI  24
WORLAND        FAIR      30  23  75 S9        30.07S WCI  22
SHERIDAN       CLEAR     37  18  44 W6        30.02F WCI  33
BUFFALO        FAIR      38  15  39 NW15G25   30.02F WCI  29
GILLETTE       FAIR      31  28  89 NW13      30.00R WCI  21
HULETT         FAIR      34  32  93 W13G21    29.95F WCI  25
NEWCASTLE      MOCLDY    32  30  93 NW12      29.97S WCI  23

$$
WYZ014>020-022>026-101>103-140600-
CENTRAL WYOMING

CITY           SKY/WX    TMP DP  RH WIND       PRES   REMARKS
BIG PINEY      FAIR      24  16  71 NE10      30.17S WCI  14
PINEDALE         N/A     21  18  86 MISG      30.19
DUBOIS         FAIR      27   9  46 NW21      30.09F WCI  13
LANDER         FAIR      31  16  54 CALM      30.12R
RIVERTON       FAIR      31  16  54 W12       30.10R WCI  22
CASPER         FAIR      25  20  81 SW10      30.08S WCI  15
DOUGLAS        FAIR      32  24  72 NW13      30.05S WCI  22

$$
WYZ021-027>030-104>119-140600-
SOUTHERN WYOMING

CITY           SKY/WX    TMP DP  RH WIND       PRES   REMARKS
EVANSTON       FAIR      26  18  71 SW9       30.25F WCI  17
FORT BRIDGER   CLEAR     30  23  74 W18       30.24F WCI  18
ROCK SPRINGS   FAIR      32  18  56 NW6       30.21R WCI  26
DIXON          FAIR      16  12  84 NE8       30.25R WCI   6
RAWLINS        FAIR      27  17  66 SW14      30.17R WCI  16
SARATOGA       FAIR      28  21  74 SW18      30.19R WCI  16
LARAMIE        FAIR      27  19  72 NE6       30.10R WCI  20
CHEYENNE       FAIR      33  25  72 NW21G31   30.05F WCI  21
TORRINGTON     FAIR      33  29  85 W10       30.03R WCI  25
PINE BLUFFS    FAIR      30  28  93 N10       30.07R WCI  21

$$




USA.gov is the U.S. government's official web portal to all federal, state and local government web resources and services.